BAW2131 EGLL-KBOS

Flight info

Callsign BAW2131
Flight time N/A
Altitude 38000
Route ULTIB1J ULTIB T420 TNT UL28 PENIL M144 BAGSO DCT RINUS DCT MALOT/M084F390 NATD RIKAL/N0490F400 N572A TOPPS DCT AJJAY OOSHN5
Aircraft A388/J-SDE1E2E3GHIJ3J4J5J6LM1M2OP2RWXYZ/LB1D1

Departure

Time N/A
Airport London Heathrow Airport (EGLL)

Arrival

Time 2026-05-04 16:01
Airport Boston Logan International Airport (KBOS)
Time Latitude Longitude Altitude Speed Heading
2026-05-04 12:40 53.97024 -40.50572 39248 ft 449 kts 266°
2026-05-04 12:40 53.96707 -40.55832 39247 ft 449 kts 266°
2026-05-04 12:41 53.96061 -40.66381 39243 ft 449 kts 266°
2026-05-04 12:41 53.95400 -40.76945 39240 ft 448 kts 266°
2026-05-04 12:42 53.94732 -40.87460 39238 ft 448 kts 266°
2026-05-04 12:42 53.94058 -40.97922 39227 ft 448 kts 266°
2026-05-04 12:43 53.93372 -41.08424 39230 ft 447 kts 266°
2026-05-04 12:43 53.92678 -41.18901 39226 ft 446 kts 266°
2026-05-04 12:44 53.91978 -41.29341 39219 ft 445 kts 266°
2026-05-04 12:44 53.91268 -41.39774 39218 ft 444 kts 265°
2026-05-04 12:45 53.90557 -41.50107 39209 ft 443 kts 265°
2026-05-04 12:45 53.89830 -41.60537 39210 ft 442 kts 265°
2026-05-04 12:46 53.89105 -41.70801 39202 ft 441 kts 265°
2026-05-04 12:46 53.88367 -41.81110 39195 ft 440 kts 265°
2026-05-04 12:47 53.87623 -41.91388 39195 ft 439 kts 264°
2026-05-04 12:47 53.86872 -42.01638 39188 ft 437 kts 264°
2026-05-04 12:48 53.86113 -42.11875 39182 ft 437 kts 264°
2026-05-04 12:48 53.85353 -42.22005 39176 ft 436 kts 264°
2026-05-04 12:49 53.84581 -42.32170 39160 ft 435 kts 264°
2026-05-04 12:49 53.83801 -42.42340 39159 ft 435 kts 264°
2026-05-04 12:50 53.83012 -42.52495 39147 ft 435 kts 264°
2026-05-04 12:50 53.82213 -42.62666 39137 ft 435 kts 263°
2026-05-04 12:51 53.81408 -42.72807 39140 ft 435 kts 263°
2026-05-04 12:51 53.80592 -42.82976 39139 ft 436 kts 263°
2026-05-04 12:52 53.79767 -42.93138 39135 ft 437 kts 263°
2026-05-04 12:52 53.78931 -43.03326 39137 ft 437 kts 263°
2026-05-04 12:53 53.78091 -43.13459 39130 ft 438 kts 263°
2026-05-04 12:53 53.77235 -43.23676 39126 ft 438 kts 263°
2026-05-04 12:54 53.76371 -43.33880 39118 ft 439 kts 262°
2026-05-04 12:54 53.75496 -43.44106 39114 ft 439 kts 262°
2026-05-04 12:55 53.74620 -43.54244 39111 ft 439 kts 262°
2026-05-04 12:55 53.73727 -43.64462 39114 ft 439 kts 262°
2026-05-04 12:56 53.72829 -43.74647 39097 ft 438 kts 262°
2026-05-04 12:56 53.71921 -43.84833 39098 ft 438 kts 262°
2026-05-04 12:57 53.71008 -43.94983 39088 ft 437 kts 262°
2026-05-04 12:57 53.70092 -44.05065 39080 ft 437 kts 262°
2026-05-04 12:58 53.69163 -44.15190 39076 ft 436 kts 262°
2026-05-04 12:58 53.68226 -44.25310 39070 ft 436 kts 262°
2026-05-04 12:59 53.67282 -44.35406 39064 ft 436 kts 262°
2026-05-04 12:59 53.66327 -44.45521 39061 ft 436 kts 261°
2026-05-04 13:00 53.65372 -44.55540 39054 ft 435 kts 261°
2026-05-04 13:00 53.64403 -44.65618 39044 ft 435 kts 261°
2026-05-04 13:01 53.63429 -44.75660 39038 ft 434 kts 261°
2026-05-04 13:01 53.62447 -44.85681 39026 ft 434 kts 261°
2026-05-04 13:02 53.61457 -44.95702 39019 ft 433 kts 260°
2026-05-04 13:02 53.60459 -45.05715 39007 ft 433 kts 260°
2026-05-04 13:03 53.59454 -45.15711 39002 ft 433 kts 260°
2026-05-04 13:03 53.58440 -45.25709 39000 ft 433 kts 260°
2026-05-04 13:04 53.57424 -45.35641 38995 ft 433 kts 259°
2026-05-04 13:04 53.56393 -45.45623 38991 ft 433 kts 259°
2026-05-04 13:05 53.55355 -45.55595 38986 ft 433 kts 259°
2026-05-04 13:05 53.54307 -45.65582 38985 ft 433 kts 259°
2026-05-04 13:06 53.53250 -45.75565 38983 ft 433 kts 258°
2026-05-04 13:06 53.52189 -45.85512 38979 ft 432 kts 258°
2026-05-04 13:07 53.51119 -45.95447 38967 ft 431 kts 258°
2026-05-04 13:07 53.50053 -46.05277 38962 ft 430 kts 258°
2026-05-04 13:08 53.48971 -46.15166 38951 ft 430 kts 257°
2026-05-04 13:08 53.47884 -46.25025 38943 ft 429 kts 257°
2026-05-04 13:09 53.46790 -46.34869 38928 ft 429 kts 257°
2026-05-04 13:09 53.45687 -46.44711 38926 ft 428 kts 257°
2026-05-04 13:10 53.44578 -46.54535 38918 ft 428 kts 257°
2026-05-04 13:10 53.43466 -46.64308 38915 ft 429 kts 256°
2026-05-04 13:11 53.42339 -46.74134 38910 ft 429 kts 256°
2026-05-04 13:11 53.41202 -46.83977 38907 ft 430 kts 256°
2026-05-04 13:12 53.40064 -46.93752 38902 ft 430 kts 256°
2026-05-04 13:12 53.38901 -47.03668 38899 ft 431 kts 256°
2026-05-04 13:13 53.37745 -47.13444 38893 ft 431 kts 255°
2026-05-04 13:13 53.36571 -47.23306 38888 ft 432 kts 255°
2026-05-04 13:14 53.35388 -47.33164 38883 ft 432 kts 255°
2026-05-04 13:14 53.34192 -47.43062 38875 ft 432 kts 255°
2026-05-04 13:15 53.32999 -47.52856 38869 ft 433 kts 255°
2026-05-04 13:15 53.31789 -47.62721 38861 ft 433 kts 254°
2026-05-04 13:16 53.30570 -47.72595 38855 ft 434 kts 254°
2026-05-04 13:16 53.29338 -47.82488 38846 ft 434 kts 254°
2026-05-04 13:17 53.28099 -47.92375 38831 ft 435 kts 254°
2026-05-04 13:17 53.26856 -48.02221 38828 ft 436 kts 253°
2026-05-04 13:18 53.25596 -48.12134 38821 ft 437 kts 253°
2026-05-04 13:18 53.24326 -48.22049 38824 ft 437 kts 253°
2026-05-04 13:19 53.23043 -48.32002 38811 ft 438 kts 253°
2026-05-04 13:19 53.21752 -48.41944 38807 ft 439 kts 253°
2026-05-04 13:20 53.20446 -48.51929 38805 ft 441 kts 253°
2026-05-04 13:20 53.19130 -48.61921 38798 ft 442 kts 253°
2026-05-04 13:21 53.17811 -48.71868 38793 ft 443 kts 252°
2026-05-04 13:21 53.16468 -48.81928 38785 ft 444 kts 252°
2026-05-04 13:22 53.15122 -48.91936 38780 ft 445 kts 252°
2026-05-04 13:22 53.13759 -49.02005 38775 ft 446 kts 252°
2026-05-04 13:23 53.12387 -49.12072 38773 ft 446 kts 252°
2026-05-04 13:23 53.11003 -49.22157 38759 ft 447 kts 252°
2026-05-04 13:24 53.09607 -49.32258 38758 ft 448 kts 252°
2026-05-04 13:24 53.08201 -49.42370 38753 ft 449 kts 251°
2026-05-04 13:25 53.06072 -49.57548 38740 ft 450 kts 251°
2026-05-04 13:25 53.04640 -49.67710 38725 ft 451 kts 251°
2026-05-04 13:26 53.03204 -49.77855 38723 ft 452 kts 251°
2026-05-04 13:26 53.01764 -49.87963 38718 ft 453 kts 251°
2026-05-04 13:27 53.00133 -49.98048 38711 ft 451 kts 248°
2026-05-04 13:27 52.98122 -50.07883 38706 ft 448 kts 243°
2026-05-04 13:28 52.95793 -50.17415 38698 ft 449 kts 243°
2026-05-04 13:28 52.93487 -50.27047 38694 ft 450 kts 243°
2026-05-04 13:29 52.91555 -50.35062 38689 ft 450 kts 243°
2026-05-04 13:29 52.89215 -50.44696 38683 ft 451 kts 242°
2026-05-04 13:30 52.86861 -50.54333 38672 ft 451 kts 242°
2026-05-04 13:30 52.84497 -50.63965 38667 ft 452 kts 242°
2026-05-04 13:31 52.82119 -50.73612 38655 ft 453 kts 242°
2026-05-04 13:31 52.79733 -50.83251 38643 ft 454 kts 242°
2026-05-04 13:32 52.77346 -50.92851 38638 ft 455 kts 242°
2026-05-04 13:32 52.74932 -51.02517 38631 ft 456 kts 242°
2026-05-04 13:33 52.72506 -51.12189 38616 ft 457 kts 242°
2026-05-04 13:33 52.70066 -51.21876 38624 ft 458 kts 242°
2026-05-04 13:34 52.67607 -51.31594 38613 ft 459 kts 241°
2026-05-04 13:34 52.65141 -51.41300 38604 ft 460 kts 241°
2026-05-04 13:35 52.61426 -51.55841 38595 ft 462 kts 241°
2026-05-04 13:36 52.58922 -51.65585 38588 ft 463 kts 241°
2026-05-04 13:36 52.56401 -51.75359 38583 ft 464 kts 241°
2026-05-04 13:37 52.53867 -51.85139 38570 ft 465 kts 241°
2026-05-04 13:37 52.51322 -51.94915 38569 ft 466 kts 241°
2026-05-04 13:38 52.48776 -52.04656 38562 ft 467 kts 241°
2026-05-04 13:38 52.46201 -52.14468 38551 ft 468 kts 241°
2026-05-04 13:39 52.43612 -52.24289 38548 ft 470 kts 241°
2026-05-04 13:39 52.41008 -52.34122 38542 ft 471 kts 241°
2026-05-04 13:40 52.38388 -52.43975 38536 ft 472 kts 241°
2026-05-04 13:40 52.35757 -52.53825 38528 ft 473 kts 241°
2026-05-04 13:41 52.33127 -52.63631 38518 ft 474 kts 241°
2026-05-04 13:41 52.30466 -52.73510 38517 ft 475 kts 241°
2026-05-04 13:42 52.26448 -52.88349 38497 ft 477 kts 240°
2026-05-04 13:42 52.23753 -52.98246 38492 ft 478 kts 240°
2026-05-04 13:43 52.21041 -53.08163 38488 ft 479 kts 240°
2026-05-04 13:43 52.18365 -53.17907 38481 ft 480 kts 240°
2026-05-04 13:44 52.15628 -53.27832 38475 ft 481 kts 240°
2026-05-04 13:44 52.12888 -53.37726 38475 ft 482 kts 240°
2026-05-04 13:45 52.10122 -53.47674 38465 ft 483 kts 240°
2026-05-04 13:45 52.07336 -53.57645 38458 ft 484 kts 240°
2026-05-04 13:46 52.04540 -53.67614 38452 ft 485 kts 240°
2026-05-04 13:46 52.01730 -53.77590 38443 ft 486 kts 240°
2026-05-04 13:47 51.98908 -53.87565 38437 ft 487 kts 240°
2026-05-04 13:47 51.96072 -53.97545 38437 ft 488 kts 240°
2026-05-04 13:48 51.93223 -54.07533 38425 ft 488 kts 240°
2026-05-04 13:48 51.90373 -54.17476 38416 ft 489 kts 240°
2026-05-04 13:49 51.87501 -54.27459 38409 ft 490 kts 240°
2026-05-04 13:49 51.84610 -54.37466 38403 ft 491 kts 240°
2026-05-04 13:50 51.81712 -54.47473 38398 ft 491 kts 240°
2026-05-04 13:50 51.78564 -54.57230 38382 ft 487 kts 234°
2026-05-04 13:51 51.74978 -54.66505 38500 ft 490 kts 233°
2026-05-04 13:51 51.73181 -54.71187 38839 ft 490 kts 233°
2026-05-04 13:51 51.71397 -54.75868 39207 ft 490 kts 234°
2026-05-04 13:52 51.67818 -54.85281 39380 ft 488 kts 234°
2026-05-04 13:52 51.66051 -54.89925 39378 ft 485 kts 234°
2026-05-04 13:53 51.62521 -54.99163 39368 ft 488 kts 234°
2026-05-04 13:53 51.58956 -55.08460 39364 ft 488 kts 234°
2026-05-04 13:54 51.53586 -55.22398 39353 ft 488 kts 233°
2026-05-04 13:55 51.48204 -55.36292 39334 ft 488 kts 233°
2026-05-04 13:55 51.42814 -55.50101 39329 ft 487 kts 233°
2026-05-04 13:56 51.39232 -55.59232 39302 ft 487 kts 233°
2026-05-04 13:57 51.33812 -55.72987 39296 ft 488 kts 233°
2026-05-04 13:58 51.26533 -55.91346 39287 ft 489 kts 233°
2026-05-04 13:58 51.21044 -56.05105 39290 ft 490 kts 233°
2026-05-04 13:59 51.17374 -56.14265 39293 ft 490 kts 233°
2026-05-04 14:00 51.11904 -56.27856 39292 ft 490 kts 233°
2026-05-04 14:00 51.06370 -56.41535 39283 ft 490 kts 233°
2026-05-04 14:01 51.02674 -56.50629 39275 ft 490 kts 233°
2026-05-04 14:02 50.97117 -56.64243 39263 ft 489 kts 233°
2026-05-04 14:02 50.93408 -56.73289 39256 ft 489 kts 233°
2026-05-04 14:03 50.89699 -56.82305 39256 ft 488 kts 233°
2026-05-04 14:03 50.85980 -56.91315 39236 ft 488 kts 233°
2026-05-04 14:04 50.80425 -57.04713 39228 ft 487 kts 233°
2026-05-04 14:04 50.76693 -57.13676 39230 ft 488 kts 233°
2026-05-04 14:05 50.71079 -57.27100 39221 ft 489 kts 233°
2026-05-04 14:06 50.67342 -57.35999 39222 ft 490 kts 233°
2026-05-04 14:06 50.63569 -57.44953 39216 ft 491 kts 233°
2026-05-04 14:07 50.59777 -57.53921 39207 ft 492 kts 233°
2026-05-04 14:07 50.55973 -57.62887 39211 ft 493 kts 233°
2026-05-04 14:08 50.52145 -57.71879 39208 ft 495 kts 233°
2026-05-04 14:08 50.48329 -57.80810 39215 ft 496 kts 233°
2026-05-04 14:09 50.42550 -57.94283 39217 ft 497 kts 233°
2026-05-04 14:10 50.36745 -58.07744 39213 ft 497 kts 233°
2026-05-04 14:10 50.32860 -58.16714 39211 ft 496 kts 233°
2026-05-04 14:11 50.28986 -58.25631 39207 ft 496 kts 233°
2026-05-04 14:11 50.23162 -58.38977 39204 ft 494 kts 233°
2026-05-04 14:12 50.19306 -58.47776 39200 ft 494 kts 232°
2026-05-04 14:13 50.13480 -58.61014 39187 ft 493 kts 232°
2026-05-04 14:13 50.09585 -58.69828 39185 ft 493 kts 232°
2026-05-04 14:14 50.05682 -58.78630 39177 ft 493 kts 232°
2026-05-04 14:14 49.99826 -58.91783 39180 ft 493 kts 232°
2026-05-04 14:15 49.91978 -59.09307 39172 ft 494 kts 232°
2026-05-04 14:16 49.86087 -59.22387 39177 ft 495 kts 232°
2026-05-04 14:17 49.80164 -59.35473 39187 ft 494 kts 232°
2026-05-04 14:18 49.74232 -59.48513 39189 ft 494 kts 232°
2026-05-04 14:19 49.66978 -59.64372 39191 ft 493 kts 232°
2026-05-04 14:19 49.63015 -59.72998 39187 ft 492 kts 232°
2026-05-04 14:20 49.59053 -59.81593 39192 ft 492 kts 232°
2026-05-04 14:20 49.55081 -59.90181 39192 ft 491 kts 232°
2026-05-04 14:21 49.49121 -60.03016 39191 ft 491 kts 232°
2026-05-04 14:21 49.45165 -60.11502 39193 ft 491 kts 232°
2026-05-04 14:22 49.41179 -60.20026 39183 ft 490 kts 232°
2026-05-04 14:22 49.37192 -60.28523 39193 ft 490 kts 232°
2026-05-04 14:23 49.31184 -60.41279 39198 ft 491 kts 232°
2026-05-04 14:24 49.27201 -60.49700 39204 ft 491 kts 232°
2026-05-04 14:24 49.23190 -60.58169 39206 ft 491 kts 232°
2026-05-04 14:25 49.19175 -60.66646 39213 ft 491 kts 232°
2026-05-04 14:25 49.13114 -60.79317 39215 ft 492 kts 232°
2026-05-04 14:26 49.09074 -60.87707 39224 ft 490 kts 232°
2026-05-04 14:26 49.05053 -60.96056 39226 ft 491 kts 232°
2026-05-04 14:27 49.01010 -61.04431 39231 ft 490 kts 232°
2026-05-04 14:27 48.96957 -61.12801 39233 ft 490 kts 232°
2026-05-04 14:28 48.92902 -61.21151 39239 ft 490 kts 232°
2026-05-04 14:28 48.88849 -61.29470 39248 ft 490 kts 232°
2026-05-04 14:29 48.80734 -61.46047 39261 ft 490 kts 232°
2026-05-04 14:30 48.76661 -61.54331 39267 ft 490 kts 232°
2026-05-04 14:31 48.70544 -61.66723 39277 ft 489 kts 232°
2026-05-04 14:32 48.62386 -61.83160 39293 ft 487 kts 232°
2026-05-04 14:32 48.58307 -61.91342 39305 ft 486 kts 231°
2026-05-04 14:33 48.54238 -61.99480 39317 ft 485 kts 231°
2026-05-04 14:33 48.50173 -62.07584 39330 ft 483 kts 231°
2026-05-04 14:34 48.46141 -62.15598 39342 ft 482 kts 231°
2026-05-04 14:34 48.42089 -62.23627 39339 ft 481 kts 231°
2026-05-04 14:35 48.38038 -62.31630 39343 ft 479 kts 231°
2026-05-04 14:35 48.33999 -62.39589 39333 ft 478 kts 231°
2026-05-04 14:36 48.29962 -62.47518 39341 ft 478 kts 231°
2026-05-04 14:36 48.25916 -62.55443 39348 ft 477 kts 231°
2026-05-04 14:37 48.21882 -62.63320 39357 ft 476 kts 231°
2026-05-04 14:37 48.17876 -62.71121 39366 ft 475 kts 231°
2026-05-04 14:38 48.14004 -62.78640 39376 ft 475 kts 231°
2026-05-04 14:38 48.10012 -62.86369 39387 ft 474 kts 231°
2026-05-04 14:39 48.05967 -62.94179 39392 ft 474 kts 231°
2026-05-04 14:39 48.01923 -63.01964 39394 ft 474 kts 231°
2026-05-04 14:40 47.95838 -63.13636 39403 ft 474 kts 231°
2026-05-04 14:40 47.91809 -63.21339 39408 ft 475 kts 231°
2026-05-04 14:41 47.87736 -63.29100 39413 ft 476 kts 231°
2026-05-04 14:42 47.79539 -63.44657 39462 ft 478 kts 231°
2026-05-04 14:42 47.75421 -63.52440 39473 ft 479 kts 231°
2026-05-04 14:43 47.71288 -63.60229 39473 ft 479 kts 231°
2026-05-04 14:43 47.67160 -63.67984 39482 ft 479 kts 231°
2026-05-04 14:44 47.63058 -63.75670 39489 ft 478 kts 231°
2026-05-04 14:44 47.58931 -63.83380 39472 ft 477 kts 231°
2026-05-04 14:45 47.54805 -63.91068 39479 ft 476 kts 231°
2026-05-04 14:45 47.50682 -63.98727 39484 ft 475 kts 231°
2026-05-04 14:46 47.46551 -64.06381 39483 ft 475 kts 231°
2026-05-04 14:46 47.42427 -64.13999 39490 ft 474 kts 231°
2026-05-04 14:47 47.38327 -64.21553 39499 ft 474 kts 231°
2026-05-04 14:47 47.34195 -64.29144 39508 ft 474 kts 231°
2026-05-04 14:48 47.30053 -64.36733 39524 ft 475 kts 231°
2026-05-04 14:48 47.25896 -64.44328 39542 ft 476 kts 231°
2026-05-04 14:49 47.21731 -64.51917 39549 ft 476 kts 231°
2026-05-04 14:49 47.17586 -64.59447 39547 ft 477 kts 231°
2026-05-04 14:50 47.13403 -64.67028 39556 ft 478 kts 231°
2026-05-04 14:50 47.09210 -64.74605 39578 ft 478 kts 231°
2026-05-04 14:51 47.05012 -64.82169 39586 ft 478 kts 231°
2026-05-04 14:51 47.00811 -64.89717 39592 ft 477 kts 231°
2026-05-04 14:52 46.96618 -64.97232 39599 ft 476 kts 231°
2026-05-04 14:52 46.92425 -65.04726 39607 ft 476 kts 231°
2026-05-04 14:53 46.88224 -65.12213 39615 ft 475 kts 231°
2026-05-04 14:53 46.84036 -65.19658 39625 ft 474 kts 231°
2026-05-04 14:54 46.79843 -65.27090 39633 ft 473 kts 231°
2026-05-04 14:54 46.75652 -65.34498 39632 ft 473 kts 231°
2026-05-04 14:55 46.71491 -65.41834 39620 ft 472 kts 231°
2026-05-04 14:55 46.67304 -65.49197 39647 ft 472 kts 231°
2026-05-04 14:56 46.63107 -65.56558 39652 ft 471 kts 231°
2026-05-04 14:56 46.58915 -65.63889 39659 ft 471 kts 231°
2026-05-04 14:57 46.54715 -65.71216 39663 ft 471 kts 231°
2026-05-04 14:57 46.50509 -65.78532 39671 ft 472 kts 231°
2026-05-04 14:58 46.46300 -65.85836 39672 ft 472 kts 231°
2026-05-04 14:58 46.42790 -65.91910 39682 ft 473 kts 231°
2026-05-04 14:59 46.37871 -66.00403 39691 ft 473 kts 231°
2026-05-04 15:00 46.31513 -66.11340 39708 ft 473 kts 231°
2026-05-04 15:00 46.27277 -66.18603 39715 ft 472 kts 231°
2026-05-04 15:01 46.20920 -66.29467 39723 ft 471 kts 231°
2026-05-04 15:01 46.16678 -66.36693 39725 ft 471 kts 231°
2026-05-04 15:02 46.12468 -66.43845 39735 ft 470 kts 231°
2026-05-04 15:02 46.08228 -66.51030 39734 ft 470 kts 231°
2026-05-04 15:03 46.03988 -66.58197 39735 ft 470 kts 231°
2026-05-04 15:03 45.99747 -66.65347 39734 ft 469 kts 231°
2026-05-04 15:04 45.95506 -66.72478 39739 ft 469 kts 231°
2026-05-04 15:04 45.91290 -66.79549 39738 ft 468 kts 231°
2026-05-04 15:05 45.87741 -66.85486 39737 ft 468 kts 231°
2026-05-04 15:05 45.82798 -66.93736 39746 ft 468 kts 231°
2026-05-04 15:06 45.78555 -67.00798 39755 ft 468 kts 231°
2026-05-04 15:07 45.72893 -67.10194 39764 ft 467 kts 230°
2026-05-04 15:07 45.68639 -67.17231 39770 ft 467 kts 230°
2026-05-04 15:08 45.64381 -67.24262 39775 ft 467 kts 230°
2026-05-04 15:08 45.60127 -67.31276 39780 ft 467 kts 230°
2026-05-04 15:09 45.55868 -67.38281 39780 ft 466 kts 230°
2026-05-04 15:09 45.51613 -67.45262 39780 ft 466 kts 230°
2026-05-04 15:10 45.45253 -67.55665 39777 ft 466 kts 230°
2026-05-04 15:11 45.38861 -67.66078 39783 ft 466 kts 229°
2026-05-04 15:11 45.34322 -67.72673 39780 ft 466 kts 226°
2026-05-04 15:12 45.29644 -67.79063 39789 ft 467 kts 224°
2026-05-04 15:12 45.24667 -67.85024 39791 ft 468 kts 222°
2026-05-04 15:13 45.19688 -67.90981 39796 ft 468 kts 222°
2026-05-04 15:13 45.14693 -67.96937 39803 ft 468 kts 222°
2026-05-04 15:14 45.09732 -68.02830 39802 ft 468 kts 222°
2026-05-04 15:14 45.04736 -68.08749 39804 ft 468 kts 222°
2026-05-04 15:15 44.99749 -68.14644 39799 ft 467 kts 222°
2026-05-04 15:15 44.94758 -68.20529 39800 ft 467 kts 222°
2026-05-04 15:16 44.87266 -68.29337 39801 ft 466 kts 222°
2026-05-04 15:17 44.79775 -68.38113 39800 ft 466 kts 222°
2026-05-04 15:17 44.72303 -68.46838 39799 ft 465 kts 222°
2026-05-04 15:18 44.67320 -68.52639 39802 ft 465 kts 222°
2026-05-04 15:19 44.59877 -68.61279 39814 ft 464 kts 221°
2026-05-04 15:19 44.52398 -68.69930 39812 ft 464 kts 221°
2026-05-04 15:20 44.47411 -68.75684 39810 ft 464 kts 221°
2026-05-04 15:20 44.42428 -68.81419 39811 ft 464 kts 221°
2026-05-04 15:21 44.37440 -68.87147 39810 ft 463 kts 221°
2026-05-04 15:22 44.29986 -68.95680 39810 ft 463 kts 221°
2026-05-04 15:22 44.22505 -69.04218 39832 ft 463 kts 221°
2026-05-04 15:23 44.17514 -69.09898 39834 ft 463 kts 221°
2026-05-04 15:23 44.12518 -69.15569 39841 ft 463 kts 221°
2026-05-04 15:24 44.02540 -69.26859 39833 ft 463 kts 221°
2026-05-04 15:25 43.97525 -69.32515 39835 ft 463 kts 221°
2026-05-04 15:26 43.90017 -69.40958 39836 ft 462 kts 221°
2026-05-04 15:26 43.82518 -69.49363 39842 ft 462 kts 221°
2026-05-04 15:27 43.74962 -69.57452 39447 ft 456 kts 216°
2026-05-04 15:28 43.69349 -69.61621 38601 ft 461 kts 207°
2026-05-04 15:28 43.66330 -69.63219 37637 ft 469 kts 202°
2026-05-04 15:28 43.60044 -69.65999 35652 ft 476 kts 202°
2026-05-04 15:29 43.56903 -69.67406 34963 ft 472 kts 203°
2026-05-04 15:30 43.44502 -69.72976 32063 ft 455 kts 204°
2026-05-04 15:30 43.35667 -69.76937 30152 ft 440 kts 204°
2026-05-04 15:31 43.29900 -69.79518 28751 ft 431 kts 204°
2026-05-04 15:31 43.27060 -69.80785 28226 ft 422 kts 204°
2026-05-04 15:32 43.18833 -69.84451 26406 ft 407 kts 204°
2026-05-04 15:32 43.13502 -69.86823 25211 ft 398 kts 204°
2026-05-04 15:33 43.08282 -69.89141 24050 ft 391 kts 204°
2026-05-04 15:34 43.00645 -69.92523 22270 ft 379 kts 204°
2026-05-04 15:34 42.98143 -69.93628 21695 ft 375 kts 204°
2026-05-04 15:34 42.93225 -69.95802 20574 ft 367 kts 204°
2026-05-04 15:35 42.88424 -69.97922 19473 ft 362 kts 204°
2026-05-04 15:35 42.86037 -69.98974 18935 ft 359 kts 204°
2026-05-04 15:35 42.83667 -70.00018 18378 ft 357 kts 204°
2026-05-04 15:36 42.78969 -70.02084 17252 ft 351 kts 204°
2026-05-04 15:36 42.76643 -70.03107 16822 ft 353 kts 204°
2026-05-04 15:36 42.74302 -70.04163 16273 ft 353 kts 205°
2026-05-04 15:37 42.72006 -70.05293 15751 ft 348 kts 206°
2026-05-04 15:37 42.69747 -70.06435 15218 ft 343 kts 206°
2026-05-04 15:37 42.67527 -70.07567 14704 ft 338 kts 208°
2026-05-04 15:37 42.65597 -70.09179 14211 ft 325 kts 225°
2026-05-04 15:38 42.64155 -70.11502 13711 ft 314 kts 242°
2026-05-04 15:38 42.63236 -70.14110 13336 ft 304 kts 248°
2026-05-04 15:38 42.62375 -70.16665 13200 ft 290 kts 248°
2026-05-04 15:38 42.61542 -70.19085 13068 ft 277 kts 247°
2026-05-04 15:39 42.60738 -70.21413 12885 ft 270 kts 248°
2026-05-04 15:39 42.59979 -70.23728 12614 ft 266 kts 252°
2026-05-04 15:39 42.58806 -70.28456 12093 ft 262 kts 253°
2026-05-04 15:40 42.58225 -70.30766 11828 ft 262 kts 253°
2026-05-04 15:40 42.57638 -70.33090 11569 ft 260 kts 252°
2026-05-04 15:40 42.57051 -70.35405 11319 ft 258 kts 252°
2026-05-04 15:40 42.56467 -70.37709 11068 ft 257 kts 252°
2026-05-04 15:41 42.55887 -70.39998 10816 ft 255 kts 252°
2026-05-04 15:41 42.55310 -70.42272 10559 ft 254 kts 252°
2026-05-04 15:41 42.54735 -70.44536 10315 ft 253 kts 252°
2026-05-04 15:41 42.54161 -70.46793 10036 ft 252 kts 252°
2026-05-04 15:42 42.53590 -70.49037 9794 ft 250 kts 252°
2026-05-04 15:42 42.53022 -70.51269 9534 ft 251 kts 252°
2026-05-04 15:42 42.52473 -70.53487 9254 ft 245 kts 253°
2026-05-04 15:42 42.51975 -70.55663 8981 ft 238 kts 253°
2026-05-04 15:43 42.51501 -70.57772 8847 ft 228 kts 254°
2026-05-04 15:43 42.51049 -70.59774 8760 ft 217 kts 253°
2026-05-04 15:43 42.50620 -70.61656 8682 ft 206 kts 253°
2026-05-04 15:43 42.50203 -70.63475 8553 ft 199 kts 253°
2026-05-04 15:44 42.49792 -70.65257 8485 ft 200 kts 253°
2026-05-04 15:44 42.49368 -70.67097 8483 ft 209 kts 253°
2026-05-04 15:44 42.48929 -70.68997 8399 ft 212 kts 253°
2026-05-04 15:44 42.48491 -70.70892 8305 ft 210 kts 253°
2026-05-04 15:45 42.48054 -70.72776 8215 ft 209 kts 253°
2026-05-04 15:45 42.47619 -70.74652 8122 ft 208 kts 253°
2026-05-04 15:45 42.47185 -70.76518 8027 ft 207 kts 253°
2026-05-04 15:45 42.46752 -70.78382 7879 ft 207 kts 253°
2026-05-04 15:46 42.46319 -70.80245 7705 ft 206 kts 253°
2026-05-04 15:46 42.45706 -70.81990 7527 ft 209 kts 234°
2026-05-04 15:46 42.44519 -70.83166 7349 ft 220 kts 208°
2026-05-04 15:46 42.43033 -70.83763 7168 ft 222 kts 204°
2026-05-04 15:47 42.41556 -70.84359 6983 ft 221 kts 205°
2026-05-04 15:47 42.40093 -70.84973 6801 ft 220 kts 205°
2026-05-04 15:47 42.38590 -70.85329 6703 ft 221 kts 189°
2026-05-04 15:47 42.37076 -70.85019 6522 ft 227 kts 174°
2026-05-04 15:48 42.35556 -70.84440 6274 ft 226 kts 175°
2026-05-04 15:48 42.34050 -70.83828 6009 ft 231 kts 166°
2026-05-04 15:48 42.31488 -70.80896 5608 ft 245 kts 143°
2026-05-04 15:49 42.30287 -70.79266 5398 ft 242 kts 144°
2026-05-04 15:49 42.29096 -70.77674 5191 ft 240 kts 144°
2026-05-04 15:49 42.27905 -70.76093 5019 ft 238 kts 145°
2026-05-04 15:49 42.26728 -70.74528 5018 ft 237 kts 144°
2026-05-04 15:50 42.25547 -70.72964 5003 ft 239 kts 144°
2026-05-04 15:50 42.24350 -70.71393 5009 ft 240 kts 145°
2026-05-04 15:50 42.23147 -70.69821 4864 ft 243 kts 145°
2026-05-04 15:50 42.21940 -70.68238 4639 ft 241 kts 145°
2026-05-04 15:51 42.20764 -70.66690 4389 ft 237 kts 144°
2026-05-04 15:51 42.19583 -70.65143 4161 ft 235 kts 144°
2026-05-04 15:51 42.18466 -70.63666 4016 ft 212 kts 145°
2026-05-04 15:51 42.17455 -70.62293 4004 ft 203 kts 145°
2026-05-04 15:52 42.16336 -70.61300 4007 ft 183 kts 176°
2026-05-04 15:52 42.15162 -70.61423 4008 ft 164 kts 214°
2026-05-04 15:52 42.14448 -70.62505 4009 ft 155 kts 252°
2026-05-04 15:52 42.14530 -70.63949 4016 ft 162 kts 284°
2026-05-04 15:53 42.14983 -70.65352 4005 ft 163 kts 286°
2026-05-04 15:53 42.15425 -70.66762 4007 ft 163 kts 286°
2026-05-04 15:53 42.15866 -70.68165 4034 ft 163 kts 286°
2026-05-04 15:53 42.16308 -70.69575 3971 ft 164 kts 286°
2026-05-04 15:54 42.16753 -70.70980 3670 ft 164 kts 286°
2026-05-04 15:54 42.17199 -70.72359 3362 ft 158 kts 286°
2026-05-04 15:54 42.17639 -70.73699 3071 ft 154 kts 286°
2026-05-04 15:54 42.18073 -70.75024 2987 ft 155 kts 286°
2026-05-04 15:55 42.18591 -70.76328 3022 ft 161 kts 295°
2026-05-04 15:55 42.19044 -70.77121 3013 ft 161 kts 301°
2026-05-04 15:55 42.19808 -70.78209 3013 ft 160 kts 305°
2026-05-04 15:55 42.20609 -70.79266 2991 ft 160 kts 305°
2026-05-04 15:56 42.21389 -70.80315 3011 ft 159 kts 305°
2026-05-04 15:56 42.22178 -70.81370 3015 ft 161 kts 306°
2026-05-04 15:56 42.22973 -70.82430 3020 ft 160 kts 306°
2026-05-04 15:56 42.23761 -70.83487 3024 ft 160 kts 305°
2026-05-04 15:57 42.24551 -70.84543 3009 ft 160 kts 305°
2026-05-04 15:57 42.25340 -70.85598 2823 ft 160 kts 306°
2026-05-04 15:57 42.26130 -70.86662 2603 ft 161 kts 306°
2026-05-04 15:57 42.26926 -70.87728 2393 ft 160 kts 307°
2026-05-04 15:58 42.27714 -70.88765 2176 ft 155 kts 304°
2026-05-04 15:58 42.28451 -70.89764 1973 ft 150 kts 304°
2026-05-04 15:58 42.29173 -70.90717 1764 ft 141 kts 303°
2026-05-04 15:58 42.29861 -70.91652 1587 ft 140 kts 304°
2026-05-04 15:59 42.30553 -70.92578 1387 ft 140 kts 304°
2026-05-04 15:59 42.31235 -70.93486 1212 ft 136 kts 306°
2026-05-04 15:59 42.31901 -70.94383 1023 ft 135 kts 304°
2026-05-04 15:59 42.32570 -70.95293 838 ft 141 kts 306°
2026-05-04 16:00 42.33300 -70.96243 657 ft 147 kts 308°
2026-05-04 16:00 42.33993 -70.97187 455 ft 136 kts 308°
2026-05-04 16:00 42.34650 -70.98067 279 ft 131 kts 307°
2026-05-04 16:00 42.35285 -70.98914 132 ft 127 kts 304°
2026-05-04 16:01 42.35882 -70.99751 31 ft 111 kts 312°
2026-05-04 16:01 42.36287 -71.00298 29 ft 47 kts 318°
2026-05-04 16:01 42.36423 -71.00472 30 ft 21 kts 315°
2026-05-04 16:01 42.36508 -71.00617 30 ft 18 kts 290°
2026-05-04 16:02 42.36522 -71.00705 30 ft 0 kts 277°
2026-05-04 16:02 42.36524 -71.00725 30 ft 4 kts 277°
2026-05-04 16:02 42.36530 -71.00851 31 ft 6 kts 254°
2026-05-04 16:03 42.36509 -71.00905 31 ft 7 kts 244°
2026-05-04 16:03 42.36498 -71.00973 31 ft 8 kts 274°
2026-05-04 16:03 42.36510 -71.01042 31 ft 8 kts 291°
2026-05-04 16:03 42.36532 -71.01114 31 ft 9 kts 293°
2026-05-04 16:04 42.36559 -71.01197 31 ft 10 kts 293°
2026-05-04 16:04 42.36648 -71.01270 31 ft 8 kts
2026-05-04 16:04 42.36719 -71.01252 31 ft 12 kts
2026-05-04 16:05 42.36798 -71.01292 31 ft 13 kts 322°